Location: Caltech
(34.1382°N, 118.1253°W)
Time: 05:20:11
(UTC-07:00)

Cosmos 1980 Rocket - Visible Passes

Search period start: 24 September 2017 00:00
Search period end: 04 October 2017 00:00
Orbit: 830 x 849 km, 71.0° (Epoch: 23 September)

Date Brightness Start Highest point End Pass type
(mag) Time Alt. Az. Time Alt. Az. Time Alt. Az.
24 Sep 4.9 22:18:13 10° NNW 22:18:39 12° NNW 22:18:39 12° NNW visible
25 Sep 4.7 22:02:34 10° NNW 22:03:24 14° N 22:03:24 14° N visible
26 Sep 4.4 21:46:54 10° NNW 21:48:11 17° N 21:48:11 17° N visible
27 Sep 4.2 21:31:16 10° N 21:33:00 20° N 21:33:00 20° N visible
28 Sep 3.9 21:15:38 10° N 21:17:52 23° N 21:17:52 23° N visible
29 Sep 3.6 20:59:59 10° N 21:02:47 27° N 21:02:47 27° N visible
30 Sep 3.3 20:44:21 10° N 20:47:47 32° NNE 20:47:47 32° NNE visible
30 Sep 5.0 22:29:07 10° NW 22:29:34 12° NW 22:29:34 12° NW visible
01 Oct 3.0 20:28:44 10° N 20:32:51 35° NE 20:32:51 35° NE visible
01 Oct 4.8 22:13:18 10° NW 22:14:39 15° WNW 22:14:39 15° WNW visible
02 Oct 2.8 20:13:07 10° N 20:18:00 36° NE 20:18:00 36° NE visible
02 Oct 4.5 21:57:31 10° NW 21:59:48 20° WNW 21:59:48 20° WNW visible
03 Oct 2.8 19:57:30 10° N 20:02:38 34° ENE 20:03:17 33° ENE visible
03 Oct 4.1 21:41:43 10° NW 21:45:05 25° W 21:45:05 25° W visible
